When you browse on this site, cookies collect data to enhance your experience and personalize the content and advertising you see.
Visit our Privacy Policy to learn more. By continuing to use the site, you agree to this use of cookies and data.
  • In Slovakia
  • List of Countries
  • For 7 days
  • Water Temperature
  • Weather Map
  • Weather Widgets
  • user-avatar
    Login

    Hourly Weather Malanje

    Today, 22 September, Sunday

    Time Temperature Precipitation Wind Pressure Humidity
    00:00 +24°C° 0 mm 2 mps 665 mmHg 59%
    01:00 +23°C° 0 mm 2 mps 665 mmHg 60%
    02:00 +21°C° 0 mm 2 mps 665 mmHg 65%
    03:00 +21°C° 0 mm 1 mps 664 mmHg 69%
    04:00 +21°C° 0 mm 1 mps 664 mmHg 74%
    05:00 +21°C° 0 mm 1 mps 665 mmHg 73%
    06:00 +22°C° 0 mm 1 mps 665 mmHg 71%
    07:00 +23°C° 0 mm 2 mps 666 mmHg 68%
    08:00 +26°C° 0 mm 1 mps 667 mmHg 57%
    09:00 +30°C° 0 mm 1 mps 667 mmHg 45%
    10:00 +33°C° 0 mm 1 mps 668 mmHg 34%
    11:00 +33°C° 0 mm 1 mps 667 mmHg 32%
    12:00 +34°C° 0 mm 1 mps 666 mmHg 31%
    13:00 +34°C° 0 mm 1 mps 666 mmHg 29%
    14:00 +32°C° 0.1 mm 2 mps 665 mmHg 35%
    15:00 +30°C° 0.1 mm 3 mps 664 mmHg 40%
    16:00 +29°C° 0.1 mm 3 mps 664 mmHg 46%
    17:00 +27°C° 0.7 mm 3 mps 664 mmHg 55%
    18:00 +25°C° 0.7 mm 3 mps 664 mmHg 64%
    19:00 +24°C° 0.7 mm 3 mps 665 mmHg 72%
    20:00 +22°C° 1.2 mm 3 mps 665 mmHg 74%
    21:00 +22°C° 1.2 mm 3 mps 665 mmHg 75%
    22:00 +22°C° 1.2 mm 3 mps 665 mmHg 77%
    23:00 +21°C° 0 mm 2 mps 665 mmHg 78%

    Tomorrow, 23 September, Monday

    Time Temperature Precipitation Wind Pressure Humidity
    00:00 +22°C° 0 mm 1 mps 665 mmHg 79%
    01:00 +20°C° 0 mm 0 mps 664 mmHg 81%
    02:00 +19°C° 0 mm 0 mps 664 mmHg 82%
    03:00 +19°C° 0 mm 0 mps 664 mmHg 83%
    04:00 +19°C° 0 mm 0 mps 664 mmHg 84%
    05:00 +21°C° 0 mm 1 mps 664 mmHg 82%
    06:00 +22°C° 0 mm 1 mps 665 mmHg 79%
    07:00 +22°C° 0 mm 1 mps 666 mmHg 77%
    08:00 +26°C° 0 mm 1 mps 666 mmHg 64%
    09:00 +29°C° 0 mm 1 mps 667 mmHg 52%
    10:00 +32°C° 0 mm 1 mps 667 mmHg 40%
    11:00 +34°C° 0 mm 1 mps 667 mmHg 36%
    12:00 +35°C° 0 mm 1 mps 666 mmHg 31%
    13:00 +37°C° 0 mm 1 mps 666 mmHg 27%
    14:00 +35°C° 0.1 mm 2 mps 665 mmHg 35%
    15:00 +31°C° 0.1 mm 2 mps 664 mmHg 43%
    16:00 +28°C° 0.1 mm 2 mps 663 mmHg 51%
    17:00 +27°C° 0.2 mm 2 mps 664 mmHg 55%
    18:00 +26°C° 0.2 mm 1 mps 664 mmHg 59%
    19:00 +25°C° 0.2 mm 1 mps 665 mmHg 63%
    20:00 +25°C° 0.2 mm 1 mps 665 mmHg 66%
    21:00 +24°C° 0.2 mm 1 mps 666 mmHg 69%
    22:00 +24°C° 0.2 mm 1 mps 666 mmHg 72%
    23:00 +24°C° 0 mm 1 mps 665 mmHg 73%

    Day after tomorrow, 24 September, Tuesday

    Time Temperature Precipitation Wind Pressure Humidity
    00:00 +23°C° 0 mm 2 mps 665 mmHg 74%
    01:00 +23°C° 0 mm 2 mps 665 mmHg 75%
    02:00 +23°C° 0 mm 2 mps 665 mmHg 76%
    03:00 +21°C° 0 mm 2 mps 664 mmHg 78%
    04:00 +21°C° 0 mm 2 mps 664 mmHg 79%
    05:00 +21°C° 0 mm 2 mps 665 mmHg 78%
    06:00 +21°C° 0 mm 2 mps 665 mmHg 76%
    07:00 +21°C° 0 mm 2 mps 666 mmHg 75%
    08:00 +25°C° 0 mm 2 mps 666 mmHg 63%
    09:00 +28°C° 0 mm 2 mps 667 mmHg 52%
    10:00 +31°C° 0 mm 2 mps 667 mmHg 40%
    11:00 +34°C° 0 mm 1 mps 667 mmHg 35%
    12:00 +36°C° 0 mm 1 mps 667 mmHg 30%
    13:00 +39°C° 0 mm 1 mps 666 mmHg 26%
    14:00 +37°C° 0 mm 1 mps 665 mmHg 28%
    15:00 +35°C° 0 mm 1 mps 664 mmHg 31%
    16:00 +33°C° 0 mm 1 mps 664 mmHg 33%
    17:00 +31°C° 0.1 mm 1 mps 664 mmHg 39%
    18:00 +29°C° 0.1 mm 2 mps 664 mmHg 45%
    19:00 +27°C° 0.1 mm 2 mps 664 mmHg 51%
    20:00 +26°C° 0.2 mm 2 mps 664 mmHg 55%
    21:00 +25°C° 0.2 mm 2 mps 664 mmHg 60%
    22:00 +24°C° 0.2 mm 3 mps 664 mmHg 64%
    23:00 +22°C° 0 mm 3 mps 664 mmHg 67%

    25 September, Wednesday

    Time Temperature Precipitation Wind Pressure Humidity
    00:00 +22°C° 0 mm 3 mps 664 mmHg 71%
    01:00 +21°C° 0 mm 3 mps 664 mmHg 74%
    02:00 +20°C° 0.1 mm 3 mps 664 mmHg 78%
    03:00 +19°C° 0.1 mm 2 mps 664 mmHg 81%
    04:00 +19°C° 0.1 mm 2 mps 664 mmHg 84%
    05:00 +19°C° 0.1 mm 3 mps 664 mmHg 82%
    06:00 +19°C° 0.1 mm 3 mps 665 mmHg 80%
    07:00 +19°C° 0.1 mm 3 mps 665 mmHg 78%
    08:00 +22°C° 0 mm 3 mps 666 mmHg 68%
    09:00 +26°C° 0 mm 3 mps 666 mmHg 58%
    10:00 +28°C° 0 mm 3 mps 666 mmHg 47%
    11:00 +30°C° 0 mm 3 mps 666 mmHg 42%
    12:00 +33°C° 0 mm 3 mps 666 mmHg 37%
    13:00 +35°C° 0 mm 3 mps 666 mmHg 32%
    14:00 +35°C° 0 mm 3 mps 665 mmHg 32%
    15:00 +34°C° 0 mm 3 mps 664 mmHg 32%
    16:00 +34°C° 0 mm 3 mps 664 mmHg 32%
    17:00 +30°C° 0.4 mm 3 mps 664 mmHg 42%
    18:00 +28°C° 0.4 mm 3 mps 664 mmHg 53%
    19:00 +25°C° 0.4 mm 3 mps 664 mmHg 63%
    20:00 +24°C° 0 mm 3 mps 664 mmHg 64%
    21:00 +24°C° 0 mm 3 mps 664 mmHg 65%
    22:00 +22°C° 0 mm 3 mps 665 mmHg 66%
    23:00 +21°C° 0 mm 3 mps 665 mmHg 71%

    26 September, Thursday

    Time Temperature Precipitation Wind Pressure Humidity
    00:00 +20°C° 0 mm 3 mps 665 mmHg 76%
    01:00 +19°C° 0 mm 3 mps 665 mmHg 81%
    02:00 +19°C° 0.1 mm 3 mps 665 mmHg 80%
    03:00 +19°C° 0.1 mm 4 mps 665 mmHg 80%
    04:00 +19°C° 0.1 mm 5 mps 665 mmHg 79%
    05:00 +19°C° 0 mm 4 mps 665 mmHg 77%
    06:00 +20°C° 0 mm 3 mps 665 mmHg 74%
    07:00 +20°C° 0 mm 2 mps 666 mmHg 72%
    08:00 +24°C° 0 mm 2 mps 667 mmHg 61%
    09:00 +27°C° 0 mm 2 mps 667 mmHg 50%
    10:00 +30°C° 0 mm 1 mps 668 mmHg 39%
    11:00 +32°C° 0 mm 1 mps 668 mmHg 35%
    12:00 +34°C° 0 mm 1 mps 667 mmHg 31%
    13:00 +35°C° 0 mm 0 mps 667 mmHg 27%
    14:00 +35°C° 0 mm 1 mps 666 mmHg 29%
    15:00 +33°C° 0 mm 1 mps 666 mmHg 31%
    16:00 +32°C° 0 mm 1 mps 665 mmHg 33%
    17:00 +30°C° 0.2 mm 2 mps 665 mmHg 40%
    18:00 +28°C° 0.2 mm 2 mps 665 mmHg 46%
    19:00 +26°C° 0.2 mm 2 mps 665 mmHg 53%
    20:00 +25°C° 1 mm 2 mps 666 mmHg 61%
    21:00 +24°C° 1 mm 2 mps 666 mmHg 70%
    22:00 +22°C° 1 mm 1 mps 666 mmHg 78%
    23:00 +22°C° 0 mm 1 mps 666 mmHg 79%

    27 September, Friday

    Time Temperature Precipitation Wind Pressure Humidity
    00:00 +22°C° 0 mm 1 mps 666 mmHg 81%
    01:00 +21°C° 0 mm 1 mps 665 mmHg 82%
    02:00 +20°C° 0 mm 2 mps 665 mmHg 82%
    03:00 +20°C° 0 mm 2 mps 665 mmHg 83%
    04:00 +20°C° 0 mm 2 mps 665 mmHg 84%
    05:00 +20°C° 0 mm 2 mps 666 mmHg 84%
    06:00 +20°C° 0 mm 2 mps 666 mmHg 83%
    07:00 +20°C° 0 mm 2 mps 667 mmHg 83%
    08:00 +24°C° 0 mm 2 mps 667 mmHg 71%
    09:00 +26°C° 0 mm 2 mps 667 mmHg 59%
    10:00 +29°C° 0 mm 2 mps 667 mmHg 47%
    11:00 +31°C° 0 mm 2 mps 667 mmHg 41%
    12:00 +33°C° 0 mm 1 mps 667 mmHg 35%
    13:00 +35°C° 0 mm 1 mps 666 mmHg 29%
    14:00 +34°C° 0 mm 1 mps 665 mmHg 30%
    15:00 +33°C° 0 mm 1 mps 665 mmHg 31%
    16:00 +32°C° 0 mm 1 mps 664 mmHg 32%
    17:00 +30°C° 0 mm 1 mps 664 mmHg 38%
    18:00 +28°C° 0 mm 2 mps 664 mmHg 45%
    19:00 +26°C° 0 mm 2 mps 664 mmHg 51%
    20:00 +25°C° 0 mm 2 mps 664 mmHg 55%
    21:00 +25°C° 0 mm 2 mps 665 mmHg 59%
    22:00 +24°C° 0 mm 2 mps 665 mmHg 63%
    23:00 +23°C° 0 mm 2 mps 665 mmHg 67%
    Show more